Location: Helion Bumpstead
(52.0500°N, 0.4000°E)
Time: 19:57:51
(UTC+00:00)

Cosmos 2016 Rocket - Pass Details

Date: 15 November 2025
Orbit: 946 x 999 km, 83.0° (Epoch: 14 December)

Event Time Altitude Azimuth Distance (km) Brightness Sun altitude
Rises 05:05:42 0° 345° (NNW) 3,736 6.9 -20.2°
Reaches altitude 10° 05:08:26 10° 337° (NNW) 2,780 6.1 -19.8°
Maximum altitude 05:14:08 36° 274° (W) 1,532 4.5 -18.9°
Drops below altitude 10° 05:19:47 10° 210° (SSW) 2,745 6.1 -18.0°
Sets 05:22:28 0° 202° (SSW) 3,682 6.9 -17.6°
